Year,Month,Day,Hour,Minute,Value (Times are PST for temperature in C)
2008,03,27,00,00,3.60
2008,03,27,00,01,3.60
2008,03,27,00,02,3.60
2008,03,27,00,03,3.60
2008,03,27,00,04,3.60
2008,03,27,00,05,3.60
2008,03,27,00,06,3.70
2008,03,27,00,07,3.70
2008,03,27,00,08,3.70
2008,03,27,00,09,3.70
2008,03,27,00,10,3.70
2008,03,27,00,11,3.70
2008,03,27,00,12,3.70
2008,03,27,00,13,3.70
2008,03,27,00,14,3.70
2008,03,27,00,15,3.70
2008,03,27,00,16,3.60
2008,03,27,00,17,3.60
2008,03,27,00,18,3.60
2008,03,27,00,19,3.50
2008,03,27,00,20,3.50
2008,03,27,00,21,3.50
2008,03,27,00,22,3.50
2008,03,27,00,23,3.50
2008,03,27,00,24,3.50
2008,03,27,00,25,3.50
2008,03,27,00,26,3.40
2008,03,27,00,27,3.40
2008,03,27,00,28,3.40
2008,03,27,00,29,3.40
2008,03,27,00,30,3.40
2008,03,27,00,31,3.30
2008,03,27,00,32,3.30
2008,03,27,00,33,3.40
2008,03,27,00,34,3.40
2008,03,27,00,35,3.40
2008,03,27,00,36,3.40
2008,03,27,00,37,3.40
2008,03,27,00,38,3.40
2008,03,27,00,39,3.40
2008,03,27,00,40,3.40
2008,03,27,00,41,3.40
2008,03,27,00,42,3.30
2008,03,27,00,43,3.30
2008,03,27,00,44,3.30
2008,03,27,00,45,3.40
2008,03,27,00,46,3.40
2008,03,27,00,47,3.30
2008,03,27,00,48,3.30
2008,03,27,00,49,3.30
2008,03,27,00,50,3.30
2008,03,27,00,51,3.30
2008,03,27,00,52,3.30
2008,03,27,00,53,3.30
2008,03,27,00,54,3.40
2008,03,27,00,55,3.40
2008,03,27,00,56,3.40
2008,03,27,00,57,3.40
2008,03,27,00,58,3.40
2008,03,27,00,59,3.40
2008,03,27,01,00,3.40
2008,03,27,01,01,3.40
2008,03,27,01,02,3.50
2008,03,27,01,03,3.50
2008,03,27,01,04,3.50
2008,03,27,01,05,3.50
2008,03,27,01,06,3.50
2008,03,27,01,07,3.50
2008,03,27,01,08,3.50
2008,03,27,01,09,3.50
2008,03,27,01,10,3.50
2008,03,27,01,11,3.50
2008,03,27,01,12,3.50
2008,03,27,01,13,3.40
2008,03,27,01,14,3.50
2008,03,27,01,15,3.50
2008,03,27,01,16,3.50
2008,03,27,01,17,3.50
2008,03,27,01,18,3.50
2008,03,27,01,19,3.40
2008,03,27,01,20,3.40
2008,03,27,01,21,3.40
2008,03,27,01,22,3.40
2008,03,27,01,23,3.30
2008,03,27,01,24,3.30
2008,03,27,01,25,3.20
2008,03,27,01,26,3.20
2008,03,27,01,27,3.20
2008,03,27,01,28,3.20
2008,03,27,01,29,3.20
2008,03,27,01,30,3.20
2008,03,27,01,31,3.20
2008,03,27,01,32,3.20
2008,03,27,01,33,3.10
2008,03,27,01,34,3.10
2008,03,27,01,35,3.10
2008,03,27,01,36,3.10
2008,03,27,01,37,3.10
2008,03,27,01,38,3.10
2008,03,27,01,39,3.10
2008,03,27,01,40,3.20
2008,03,27,01,41,3.20
2008,03,27,01,42,3.10
2008,03,27,01,43,3.10
2008,03,27,01,44,3.10
2008,03,27,01,45,3.20
2008,03,27,01,46,3.20
2008,03,27,01,47,3.20
2008,03,27,01,48,3.20
2008,03,27,01,49,3.20
2008,03,27,01,50,3.20
2008,03,27,01,51,3.20
2008,03,27,01,52,3.20
2008,03,27,01,53,3.20
2008,03,27,01,54,3.30
2008,03,27,01,55,3.30
2008,03,27,01,56,3.20
2008,03,27,01,57,3.20
2008,03,27,01,58,3.20
2008,03,27,01,59,3.10
2008,03,27,02,00,3.10
2008,03,27,02,01,3.10
2008,03,27,02,02,3.10
2008,03,27,02,03,3.10
2008,03,27,02,04,3.10
2008,03,27,02,05,3.10
2008,03,27,02,06,3.20
2008,03,27,02,07,3.20
2008,03,27,02,08,3.20
2008,03,27,02,09,3.20
2008,03,27,02,10,3.20
2008,03,27,02,11,3.20
2008,03,27,02,12,3.20
2008,03,27,02,13,3.10
2008,03,27,02,14,3.10
2008,03,27,02,15,3.10
2008,03,27,02,16,3.10
2008,03,27,02,17,3.10
2008,03,27,02,18,3.10
2008,03,27,02,19,3.10
2008,03,27,02,20,3.00
2008,03,27,02,21,3.00
2008,03,27,02,22,3.00
2008,03,27,02,23,3.10
2008,03,27,02,24,3.00
2008,03,27,02,25,3.00
2008,03,27,02,26,3.00
2008,03,27,02,27,2.90
2008,03,27,02,28,2.80
2008,03,27,02,29,2.80
2008,03,27,02,30,2.80
2008,03,27,02,31,2.80
2008,03,27,02,32,2.70
2008,03,27,02,33,2.70
2008,03,27,02,34,2.80
2008,03,27,02,35,2.80
2008,03,27,02,36,2.80
2008,03,27,02,37,2.80
2008,03,27,02,38,2.90
2008,03,27,02,39,2.90
2008,03,27,02,40,2.90
2008,03,27,02,41,2.90
2008,03,27,02,42,2.80
2008,03,27,02,43,2.80
2008,03,27,02,44,2.80
2008,03,27,02,45,2.80
2008,03,27,02,46,2.80
2008,03,27,02,47,2.80
2008,03,27,02,48,2.70
2008,03,27,02,49,2.70
2008,03,27,02,50,2.70
2008,03,27,02,51,2.70
2008,03,27,02,52,2.80
2008,03,27,02,53,2.80
2008,03,27,02,54,2.90
2008,03,27,02,55,2.90
2008,03,27,02,56,2.90
2008,03,27,02,57,2.90
2008,03,27,02,58,2.90
2008,03,27,02,59,2.90
2008,03,27,03,00,2.90
2008,03,27,03,01,2.90
2008,03,27,03,02,2.90
2008,03,27,03,03,2.90
2008,03,27,03,04,2.90
2008,03,27,03,05,2.90
2008,03,27,03,06,2.90
2008,03,27,03,07,2.80
2008,03,27,03,08,2.80
2008,03,27,03,09,2.90
2008,03,27,03,10,2.90
2008,03,27,03,11,2.90
2008,03,27,03,12,3.00
2008,03,27,03,13,3.10
2008,03,27,03,14,3.10
2008,03,27,03,15,3.00
2008,03,27,03,16,3.00
2008,03,27,03,17,3.00
2008,03,27,03,18,3.00
2008,03,27,03,19,3.00
2008,03,27,03,20,2.90
2008,03,27,03,21,2.90
2008,03,27,03,22,2.90
2008,03,27,03,23,2.90
2008,03,27,03,24,2.90
2008,03,27,03,25,2.90
2008,03,27,03,26,2.90
2008,03,27,03,27,2.80
2008,03,27,03,28,2.80
2008,03,27,03,29,2.80
2008,03,27,03,30,2.90
2008,03,27,03,31,2.80
2008,03,27,03,32,2.80
2008,03,27,03,33,2.80
2008,03,27,03,34,2.90
2008,03,27,03,35,2.90
2008,03,27,03,36,2.90
2008,03,27,03,37,2.90
2008,03,27,03,38,2.90
2008,03,27,03,39,2.90
2008,03,27,03,40,2.90
2008,03,27,03,41,3.00
2008,03,27,03,42,3.00
2008,03,27,03,43,3.10
2008,03,27,03,44,3.20
2008,03,27,03,45,3.20
2008,03,27,03,46,3.20
2008,03,27,03,47,3.20
2008,03,27,03,48,3.20
2008,03,27,03,49,3.20
2008,03,27,03,50,3.10
2008,03,27,03,51,3.10
2008,03,27,03,52,3.20
2008,03,27,03,53,3.20
2008,03,27,03,54,3.20
2008,03,27,03,55,3.20
2008,03,27,03,56,3.10
2008,03,27,03,57,3.10
2008,03,27,03,58,3.10
2008,03,27,03,59,3.10
2008,03,27,04,00,3.10
2008,03,27,04,01,3.10
2008,03,27,04,02,3.20
2008,03,27,04,03,3.20
2008,03,27,04,04,3.20
2008,03,27,04,05,3.20
2008,03,27,04,06,3.20
2008,03,27,04,07,3.20
2008,03,27,04,08,3.20
2008,03,27,04,09,3.20
2008,03,27,04,10,3.20
2008,03,27,04,11,3.30
2008,03,27,04,12,3.30
2008,03,27,04,13,3.30
2008,03,27,04,14,3.30
2008,03,27,04,15,3.30
2008,03,27,04,16,3.30
2008,03,27,04,17,3.30
2008,03,27,04,18,3.30
2008,03,27,04,19,3.30
2008,03,27,04,20,3.30
2008,03,27,04,21,3.30
2008,03,27,04,22,3.30
2008,03,27,04,23,3.30
2008,03,27,04,24,3.30
2008,03,27,04,25,3.30
2008,03,27,04,26,3.40
2008,03,27,04,27,3.40
2008,03,27,04,28,3.30
2008,03,27,04,29,3.40
2008,03,27,04,30,3.40
2008,03,27,04,31,3.40
2008,03,27,04,32,3.40
2008,03,27,04,33,3.40
2008,03,27,04,34,3.40
2008,03,27,04,35,3.40
2008,03,27,04,36,3.30
2008,03,27,04,37,3.30
2008,03,27,04,38,3.30
2008,03,27,04,39,3.20
2008,03,27,04,40,3.20
2008,03,27,04,41,3.20
2008,03,27,04,42,3.20
2008,03,27,04,43,3.20
2008,03,27,04,44,3.20
2008,03,27,04,45,3.20
2008,03,27,04,46,3.20
2008,03,27,04,47,3.20
2008,03,27,04,48,3.20
2008,03,27,04,49,3.10
2008,03,27,04,50,3.20
2008,03,27,04,51,3.20
2008,03,27,04,52,3.20
2008,03,27,04,53,3.20
2008,03,27,04,54,3.20
2008,03,27,04,55,3.30
2008,03,27,04,56,3.30
2008,03,27,04,57,3.40
2008,03,27,04,58,3.40
2008,03,27,04,59,3.40
2008,03,27,05,00,3.40
2008,03,27,05,01,3.40
2008,03,27,05,02,3.40
2008,03,27,05,03,3.50
2008,03,27,05,04,3.50
2008,03,27,05,05,3.50
2008,03,27,05,06,3.50
2008,03,27,05,07,3.60
2008,03,27,05,08,3.60
2008,03,27,05,09,3.60
2008,03,27,05,10,3.60
2008,03,27,05,11,3.60
2008,03,27,05,12,3.60
2008,03,27,05,13,3.60
2008,03,27,05,14,3.60
2008,03,27,05,15,3.60
2008,03,27,05,16,3.60
2008,03,27,05,17,3.60
2008,03,27,05,18,3.60
2008,03,27,05,19,3.60
2008,03,27,05,20,3.60
2008,03,27,05,21,3.60
2008,03,27,05,22,3.60
2008,03,27,05,23,3.60
2008,03,27,05,24,3.60
2008,03,27,05,25,3.60
2008,03,27,05,26,3.60
2008,03,27,05,27,3.50
2008,03,27,05,28,3.60
2008,03,27,05,29,3.60
2008,03,27,05,30,3.60
2008,03,27,05,31,3.60
2008,03,27,05,32,3.60
2008,03,27,05,33,3.50
2008,03,27,05,34,3.50
2008,03,27,05,35,3.50
2008,03,27,05,36,3.50
2008,03,27,05,37,3.50
2008,03,27,05,38,3.50
2008,03,27,05,39,3.50
2008,03,27,05,40,3.50
2008,03,27,05,41,3.40
2008,03,27,05,42,3.50
2008,03,27,05,43,3.40
2008,03,27,05,44,3.40
2008,03,27,05,45,3.40
2008,03,27,05,46,3.40
2008,03,27,05,47,3.40
2008,03,27,05,48,3.40
2008,03,27,05,49,3.40
2008,03,27,05,50,3.30
2008,03,27,05,51,3.40
2008,03,27,05,52,3.40
2008,03,27,05,53,3.40
2008,03,27,05,54,3.40
2008,03,27,05,55,3.40
2008,03,27,05,56,3.40
2008,03,27,05,57,3.30
2008,03,27,05,58,3.30
2008,03,27,05,59,3.30
2008,03,27,06,00,3.30
2008,03,27,06,01,3.30
2008,03,27,06,02,3.30
2008,03,27,06,03,3.20
2008,03,27,06,04,3.20
2008,03,27,06,05,3.30
2008,03,27,06,06,3.30
2008,03,27,06,07,3.30
2008,03,27,06,08,3.30
2008,03,27,06,09,3.20
2008,03,27,06,10,3.20
2008,03,27,06,11,3.30
2008,03,27,06,12,3.30
2008,03,27,06,13,3.20
2008,03,27,06,14,3.20
2008,03,27,06,15,3.30
2008,03,27,06,16,3.30
2008,03,27,06,17,3.20
2008,03,27,06,18,3.20
2008,03,27,06,19,3.20
2008,03,27,06,20,3.20
2008,03,27,06,21,3.20
2008,03,27,06,22,3.20
2008,03,27,06,23,3.10
2008,03,27,06,24,3.00
2008,03,27,06,25,2.90
2008,03,27,06,26,2.80
2008,03,27,06,27,2.80
2008,03,27,06,28,2.80
2008,03,27,06,29,2.70
2008,03,27,06,30,2.70
2008,03,27,06,31,2.60
2008,03,27,06,32,2.60
2008,03,27,06,33,2.70
2008,03,27,06,34,2.70
2008,03,27,06,35,2.80
2008,03,27,06,36,2.80
2008,03,27,06,37,2.90
2008,03,27,06,38,2.90
2008,03,27,06,39,2.90
2008,03,27,06,40,2.90
2008,03,27,06,41,2.90
2008,03,27,06,42,2.80
2008,03,27,06,43,2.80
2008,03,27,06,44,2.80
2008,03,27,06,45,2.70
2008,03,27,06,46,2.70
2008,03,27,06,47,2.60
2008,03,27,06,48,2.50
2008,03,27,06,49,2.40
2008,03,27,06,50,2.30
2008,03,27,06,51,2.30
2008,03,27,06,52,2.20
2008,03,27,06,53,2.20
2008,03,27,06,54,2.20
2008,03,27,06,55,2.20
2008,03,27,06,56,2.10
2008,03,27,06,57,2.10
2008,03,27,06,58,2.10
2008,03,27,06,59,2.00
2008,03,27,07,00,2.00
2008,03,27,07,01,1.90
2008,03,27,07,02,1.90
2008,03,27,07,03,1.90
2008,03,27,07,04,1.90
2008,03,27,07,05,1.90
2008,03,27,07,06,1.90
2008,03,27,07,07,1.80
2008,03,27,07,08,1.80
2008,03,27,07,09,1.80
2008,03,27,07,10,1.80
2008,03,27,07,11,1.80
2008,03,27,07,12,1.80
2008,03,27,07,13,1.80
2008,03,27,07,14,1.80
2008,03,27,07,15,1.80
2008,03,27,07,16,1.80
2008,03,27,07,17,1.80
2008,03,27,07,18,1.80
2008,03,27,07,19,1.80
2008,03,27,07,20,1.70
2008,03,27,07,21,1.70
2008,03,27,07,22,1.70
2008,03,27,07,23,1.70
2008,03,27,07,24,1.70
2008,03,27,07,25,1.60
2008,03,27,07,26,1.60
2008,03,27,07,27,1.50
2008,03,27,07,28,1.50
2008,03,27,07,29,1.50
2008,03,27,07,30,1.40
2008,03,27,07,31,1.40
2008,03,27,07,32,1.50
2008,03,27,07,33,1.50
2008,03,27,07,34,1.60
2008,03,27,07,35,1.60
2008,03,27,07,36,1.60
2008,03,27,07,37,1.70
2008,03,27,07,38,1.80
2008,03,27,07,39,1.80
2008,03,27,07,40,1.80
2008,03,27,07,41,1.80
2008,03,27,07,42,1.80
2008,03,27,07,43,1.90
2008,03,27,07,44,2.00
2008,03,27,07,45,2.10
2008,03,27,07,46,2.20
2008,03,27,07,47,2.30
2008,03,27,07,48,2.30
2008,03,27,07,49,2.30
2008,03,27,07,50,2.40
2008,03,27,07,51,2.50
2008,03,27,07,52,2.60
2008,03,27,07,53,2.60
2008,03,27,07,54,2.60
2008,03,27,07,55,2.60
2008,03,27,07,56,2.60
2008,03,27,07,57,2.70
2008,03,27,07,58,2.70
2008,03,27,07,59,2.70
2008,03,27,08,00,2.70
2008,03,27,08,01,2.70
2008,03,27,08,02,2.70
2008,03,27,08,03,2.70
2008,03,27,08,04,2.70
2008,03,27,08,05,2.70
2008,03,27,08,06,2.80
2008,03,27,08,07,2.80
2008,03,27,08,08,2.80
2008,03,27,08,09,2.80
2008,03,27,08,10,2.80
2008,03,27,08,11,2.80
2008,03,27,08,12,2.80
2008,03,27,08,13,2.80
2008,03,27,08,14,2.80
2008,03,27,08,15,2.80
2008,03,27,08,16,2.80
2008,03,27,08,17,2.80
2008,03,27,08,18,2.80
2008,03,27,08,19,2.80
2008,03,27,08,20,2.80
2008,03,27,08,21,2.90
2008,03,27,08,22,2.90
2008,03,27,08,23,2.90
2008,03,27,08,24,2.90
2008,03,27,08,25,2.90
2008,03,27,08,26,2.90
2008,03,27,08,27,2.90
2008,03,27,08,28,2.90
2008,03,27,08,29,2.90
2008,03,27,08,30,2.90
2008,03,27,08,31,2.90
2008,03,27,08,32,2.90
2008,03,27,08,33,3.00
2008,03,27,08,34,3.00
2008,03,27,08,35,3.00
2008,03,27,08,36,3.00
2008,03,27,08,37,3.00
2008,03,27,08,38,3.10
2008,03,27,08,39,3.10
2008,03,27,08,40,3.10
2008,03,27,08,41,3.10
2008,03,27,08,42,3.10
2008,03,27,08,43,3.10
2008,03,27,08,44,3.20
2008,03,27,08,45,3.20
2008,03,27,08,46,3.20
2008,03,27,08,47,3.20
2008,03,27,08,48,3.20
2008,03,27,08,49,3.30
2008,03,27,08,50,3.30
2008,03,27,08,51,3.30
2008,03,27,08,52,3.30
2008,03,27,08,53,3.30
2008,03,27,08,54,3.40
2008,03,27,08,55,3.40
2008,03,27,08,56,3.40
2008,03,27,08,57,3.40
2008,03,27,08,58,3.50
2008,03,27,08,59,3.50
2008,03,27,09,00,3.50
2008,03,27,09,01,3.60
2008,03,27,09,02,3.60
2008,03,27,09,03,3.60
2008,03,27,09,04,3.60
2008,03,27,09,05,3.70
2008,03,27,09,06,3.70
2008,03,27,09,07,3.70
2008,03,27,09,08,3.70
2008,03,27,09,09,3.70
2008,03,27,09,10,3.70
2008,03,27,09,11,3.70
2008,03,27,09,12,3.70
2008,03,27,09,13,3.70
2008,03,27,09,14,3.70
2008,03,27,09,15,3.70
2008,03,27,09,16,3.70
2008,03,27,09,17,3.70
2008,03,27,09,18,3.70
2008,03,27,09,19,3.70
2008,03,27,09,20,3.70
2008,03,27,09,21,3.70
2008,03,27,09,22,3.70
2008,03,27,09,23,3.70
2008,03,27,09,24,3.80
2008,03,27,09,25,3.80
2008,03,27,09,26,3.80
2008,03,27,09,27,3.80
2008,03,27,09,28,3.80
2008,03,27,09,29,3.80
2008,03,27,09,30,3.80
2008,03,27,09,31,3.80
2008,03,27,09,32,3.90
2008,03,27,09,33,3.90
2008,03,27,09,34,3.90
2008,03,27,09,35,3.90
2008,03,27,09,36,3.90
2008,03,27,09,37,3.90
2008,03,27,09,38,3.90
2008,03,27,09,39,3.90
2008,03,27,09,40,3.90
2008,03,27,09,41,3.90
2008,03,27,09,42,3.90
2008,03,27,09,43,3.90
2008,03,27,09,44,3.90
2008,03,27,09,45,3.90
2008,03,27,09,46,3.90
2008,03,27,09,47,3.90
2008,03,27,09,48,3.90
2008,03,27,09,49,3.90
2008,03,27,09,50,3.90
2008,03,27,09,51,3.90
2008,03,27,09,52,3.90
2008,03,27,09,53,3.90
2008,03,27,09,54,3.90
2008,03,27,09,55,3.90
2008,03,27,09,56,3.90
2008,03,27,09,57,3.90
2008,03,27,09,58,3.90
2008,03,27,09,59,3.90
2008,03,27,10,00,3.90
2008,03,27,10,01,3.90
2008,03,27,10,02,3.90
2008,03,27,10,03,3.90
2008,03,27,10,04,3.90
2008,03,27,10,05,4.00
2008,03,27,10,06,4.00
2008,03,27,10,07,4.00
2008,03,27,10,08,4.00
2008,03,27,10,09,4.00
2008,03,27,10,10,4.00
2008,03,27,10,11,4.00
2008,03,27,10,12,4.00
2008,03,27,10,13,4.00
2008,03,27,10,14,4.00
2008,03,27,10,15,4.10
2008,03,27,10,16,4.10
2008,03,27,10,17,4.10
2008,03,27,10,18,4.10
2008,03,27,10,19,4.10
2008,03,27,10,20,4.20
2008,03,27,10,21,4.20
2008,03,27,10,22,4.20
2008,03,27,10,23,4.20
2008,03,27,10,24,4.20
2008,03,27,10,25,4.30
2008,03,27,10,26,4.30
2008,03,27,10,27,4.30
2008,03,27,10,28,4.30
2008,03,27,10,29,4.30
2008,03,27,10,30,4.30
2008,03,27,10,31,4.30
2008,03,27,10,32,4.30
2008,03,27,10,33,4.20
2008,03,27,10,34,4.20
2008,03,27,10,35,4.00
2008,03,27,10,36,3.90
2008,03,27,10,37,3.70
2008,03,27,10,38,3.50
2008,03,27,10,39,3.40
2008,03,27,10,40,3.30
2008,03,27,10,41,3.20
2008,03,27,10,42,3.10
2008,03,27,10,43,3.00
2008,03,27,10,44,2.90
2008,03,27,10,45,2.90
2008,03,27,10,46,2.80
2008,03,27,10,47,2.80
2008,03,27,10,48,2.80
2008,03,27,10,49,2.80
2008,03,27,10,50,2.80
2008,03,27,10,51,2.80
2008,03,27,10,52,2.80
2008,03,27,10,53,2.80
2008,03,27,10,54,2.80
2008,03,27,10,55,2.80
2008,03,27,10,56,2.80
2008,03,27,10,57,2.80
2008,03,27,10,58,2.90
2008,03,27,10,59,2.90
2008,03,27,11,00,2.90
2008,03,27,11,01,2.90
2008,03,27,11,02,3.00
2008,03,27,11,03,3.00
2008,03,27,11,04,3.10
2008,03,27,11,05,3.10
2008,03,27,11,06,3.10
2008,03,27,11,07,3.20
2008,03,27,11,08,3.20
2008,03,27,11,09,3.20
2008,03,27,11,10,3.20
2008,03,27,11,11,3.20
2008,03,27,11,12,3.30
2008,03,27,11,13,3.30
2008,03,27,11,14,3.30
2008,03,27,11,15,3.30
2008,03,27,11,16,3.30
2008,03,27,11,17,3.30
2008,03,27,11,18,3.20
2008,03,27,11,19,3.20
2008,03,27,11,20,3.30
2008,03,27,11,21,3.30
2008,03,27,11,22,3.30
2008,03,27,11,23,3.30
2008,03,27,11,24,3.30
2008,03,27,11,25,3.30
2008,03,27,11,26,3.30
2008,03,27,11,27,3.30
2008,03,27,11,28,3.40
2008,03,27,11,29,3.40
2008,03,27,11,30,3.40
2008,03,27,11,31,3.40
2008,03,27,11,32,3.50
2008,03,27,11,33,3.60
2008,03,27,11,34,3.60
2008,03,27,11,35,3.60
2008,03,27,11,36,3.60
2008,03,27,11,37,3.60
2008,03,27,11,38,3.60
2008,03,27,11,39,3.60
2008,03,27,11,40,3.60
2008,03,27,11,41,3.50
2008,03,27,11,42,3.50
2008,03,27,11,43,3.50
2008,03,27,11,44,3.50
2008,03,27,11,45,3.40
2008,03,27,11,46,3.40
2008,03,27,11,47,3.40
2008,03,27,11,48,3.40
2008,03,27,11,49,3.40
2008,03,27,11,50,3.30
2008,03,27,11,51,3.30
2008,03,27,11,52,3.30
2008,03,27,11,53,3.30
2008,03,27,11,54,3.30
2008,03,27,11,55,3.30
2008,03,27,11,56,3.40
2008,03,27,11,57,3.40
2008,03,27,11,58,3.40
2008,03,27,11,59,3.40
2008,03,27,12,00,3.40
2008,03,27,12,01,3.40
2008,03,27,12,02,3.40
2008,03,27,12,03,3.50
2008,03,27,12,04,3.50
2008,03,27,12,05,3.60
2008,03,27,12,06,3.70
2008,03,27,12,07,3.70
2008,03,27,12,08,3.70
2008,03,27,12,09,3.70
2008,03,27,12,10,3.70
2008,03,27,12,11,3.70
2008,03,27,12,12,3.70
2008,03,27,12,13,3.70
2008,03,27,12,14,3.70
2008,03,27,12,15,3.70
2008,03,27,12,16,3.70
2008,03,27,12,17,3.70
2008,03,27,12,18,3.70
2008,03,27,12,19,3.70
2008,03,27,12,20,3.80
2008,03,27,12,21,3.80
2008,03,27,12,22,3.90
2008,03,27,12,23,3.90
2008,03,27,12,24,3.90
2008,03,27,12,25,3.90
2008,03,27,12,26,3.90
2008,03,27,12,27,3.90
2008,03,27,12,28,3.90
2008,03,27,12,29,3.90
2008,03,27,12,30,4.00
2008,03,27,12,31,4.10
2008,03,27,12,32,4.20
2008,03,27,12,33,4.30
2008,03,27,12,34,4.30
2008,03,27,12,35,4.40
2008,03,27,12,36,4.40
2008,03,27,12,37,4.50
2008,03,27,12,38,4.50
2008,03,27,12,39,4.60
2008,03,27,12,40,4.70
2008,03,27,12,41,4.70
2008,03,27,12,42,4.80
2008,03,27,12,43,4.80
2008,03,27,12,44,4.90
2008,03,27,12,45,4.90
2008,03,27,12,46,4.90
2008,03,27,12,47,5.00
2008,03,27,12,48,5.00
2008,03,27,12,49,5.00
2008,03,27,12,50,5.00
2008,03,27,12,51,5.00
2008,03,27,12,52,5.10
2008,03,27,12,53,5.10
2008,03,27,12,54,5.10
2008,03,27,12,55,5.20
2008,03,27,12,56,5.30
2008,03,27,12,57,5.30
2008,03,27,12,58,5.40
2008,03,27,12,59,5.50
2008,03,27,13,00,5.60
2008,03,27,13,01,5.70
2008,03,27,13,02,5.70
2008,03,27,13,03,5.60
2008,03,27,13,04,5.60
2008,03,27,13,05,5.60
2008,03,27,13,06,5.70
2008,03,27,13,07,5.70
2008,03,27,13,08,5.70
2008,03,27,13,09,5.70
2008,03,27,13,10,5.80
2008,03,27,13,11,5.90
2008,03,27,13,12,5.90
2008,03,27,13,13,6.00
2008,03,27,13,14,6.10
2008,03,27,13,15,6.10
2008,03,27,13,16,6.10
2008,03,27,13,17,6.00
2008,03,27,13,18,6.00
2008,03,27,13,19,5.90
2008,03,27,13,20,5.90
2008,03,27,13,21,5.90
2008,03,27,13,22,5.90
2008,03,27,13,23,6.00
2008,03,27,13,24,6.10
2008,03,27,13,25,6.20
2008,03,27,13,26,6.30
2008,03,27,13,27,6.30
2008,03,27,13,28,6.30
2008,03,27,13,29,6.30
2008,03,27,13,30,6.30
2008,03,27,13,31,6.30
2008,03,27,13,32,6.40
2008,03,27,13,33,6.40
2008,03,27,13,34,6.50
2008,03,27,13,35,6.50
2008,03,27,13,36,6.50
2008,03,27,13,37,6.40
2008,03,27,13,38,6.30
2008,03,27,13,39,6.30
2008,03,27,13,40,6.20
2008,03,27,13,41,6.10
2008,03,27,13,42,6.00
2008,03,27,13,43,6.00
2008,03,27,13,44,5.90
2008,03,27,13,45,5.80
2008,03,27,13,46,5.80
2008,03,27,13,47,5.80
2008,03,27,13,48,5.80
2008,03,27,13,49,5.90
2008,03,27,13,50,5.90
2008,03,27,13,51,6.00
2008,03,27,13,52,6.00
2008,03,27,13,53,6.00
2008,03,27,13,54,6.10
2008,03,27,13,55,6.10
2008,03,27,13,56,6.20
2008,03,27,13,57,6.20
2008,03,27,13,58,6.20
2008,03,27,13,59,6.30
2008,03,27,14,00,6.30
2008,03,27,14,01,6.40
2008,03,27,14,02,6.40
2008,03,27,14,03,6.40
2008,03,27,14,04,6.40
2008,03,27,14,05,6.40
2008,03,27,14,06,6.40
2008,03,27,14,07,6.50
2008,03,27,14,08,6.50
2008,03,27,14,09,6.60
2008,03,27,14,10,6.60
2008,03,27,14,11,6.70
2008,03,27,14,12,6.80
2008,03,27,14,13,6.90
2008,03,27,14,14,7.00
2008,03,27,14,15,7.10
2008,03,27,14,16,7.20
2008,03,27,14,17,7.20
2008,03,27,14,18,7.20
2008,03,27,14,19,7.20
2008,03,27,14,20,7.20
2008,03,27,14,21,7.20
2008,03,27,14,22,7.20
2008,03,27,14,23,7.20
2008,03,27,14,24,7.30
2008,03,27,14,25,7.30
2008,03,27,14,26,7.40
2008,03,27,14,27,7.40
2008,03,27,14,28,7.30
2008,03,27,14,29,7.30
2008,03,27,14,30,7.30
2008,03,27,14,31,7.30
2008,03,27,14,32,7.30
2008,03,27,14,33,7.30
2008,03,27,14,34,7.40
2008,03,27,14,35,7.50
2008,03,27,14,36,7.60
2008,03,27,14,37,7.50
2008,03,27,14,38,7.50
2008,03,27,14,39,7.60
2008,03,27,14,40,7.60
2008,03,27,14,41,7.60
2008,03,27,14,42,7.70
2008,03,27,14,43,7.70
2008,03,27,14,44,7.70
2008,03,27,14,45,7.70
2008,03,27,14,46,7.70
2008,03,27,14,47,7.70
2008,03,27,14,48,7.70
2008,03,27,14,49,7.70
2008,03,27,14,50,7.70
2008,03,27,14,51,7.60
2008,03,27,14,52,7.40
2008,03,27,14,53,7.30
2008,03,27,14,54,7.30
2008,03,27,14,55,7.30
2008,03,27,14,56,7.30
2008,03,27,14,57,7.20
2008,03,27,14,58,7.20
2008,03,27,14,59,7.20
2008,03,27,15,00,7.30
2008,03,27,15,01,7.30
2008,03,27,15,02,7.20
2008,03,27,15,03,7.20
2008,03,27,15,04,7.20
2008,03,27,15,05,7.20
2008,03,27,15,06,7.20
2008,03,27,15,07,7.20
2008,03,27,15,08,7.20
2008,03,27,15,09,7.10
2008,03,27,15,10,7.00
2008,03,27,15,11,6.90
2008,03,27,15,12,6.80
2008,03,27,15,13,6.70
2008,03,27,15,14,6.70
2008,03,27,15,15,6.70
2008,03,27,15,16,6.70
2008,03,27,15,17,6.80
2008,03,27,15,18,6.80
2008,03,27,15,19,6.80
2008,03,27,15,20,6.70
2008,03,27,15,21,6.70
2008,03,27,15,22,6.70
2008,03,27,15,23,6.70
2008,03,27,15,24,6.60
2008,03,27,15,25,6.60
2008,03,27,15,26,6.50
2008,03,27,15,27,6.60
2008,03,27,15,28,6.60
2008,03,27,15,29,6.60
2008,03,27,15,30,6.70
2008,03,27,15,31,6.80
2008,03,27,15,32,6.80
2008,03,27,15,33,6.80
2008,03,27,15,34,6.80
2008,03,27,15,35,6.70
2008,03,27,15,36,6.70
2008,03,27,15,37,6.60
2008,03,27,15,38,6.50
2008,03,27,15,39,6.50
2008,03,27,15,40,6.40
2008,03,27,15,41,6.50
2008,03,27,15,42,6.50
2008,03,27,15,43,6.60
2008,03,27,15,44,6.60
2008,03,27,15,45,6.60
2008,03,27,15,46,6.60
2008,03,27,15,47,6.60
2008,03,27,15,48,6.60
2008,03,27,15,49,6.50
2008,03,27,15,50,6.50
2008,03,27,15,51,6.60
2008,03,27,15,52,6.60
2008,03,27,15,53,6.50
2008,03,27,15,54,6.40
2008,03,27,15,55,6.40
2008,03,27,15,56,6.30
2008,03,27,15,57,6.30
2008,03,27,15,58,6.30
2008,03,27,15,59,6.20
2008,03,27,16,00,6.30
2008,03,27,16,01,6.30
2008,03,27,16,02,6.30
2008,03,27,16,03,6.30
2008,03,27,16,04,6.30
2008,03,27,16,05,6.40
2008,03,27,16,06,6.40
2008,03,27,16,07,6.40
2008,03,27,16,08,6.40
2008,03,27,16,09,6.40
2008,03,27,16,10,6.40
2008,03,27,16,11,6.40
2008,03,27,16,12,6.50
2008,03,27,16,13,6.50
2008,03,27,16,14,6.40
2008,03,27,16,15,6.40
2008,03,27,16,16,6.40
2008,03,27,16,17,6.40
2008,03,27,16,18,6.50
2008,03,27,16,19,6.60
2008,03,27,16,20,6.60
2008,03,27,16,21,6.60
2008,03,27,16,22,6.50
2008,03,27,16,23,6.50
2008,03,27,16,24,6.50
2008,03,27,16,25,6.50
2008,03,27,16,26,6.70
2008,03,27,16,27,6.70
2008,03,27,16,28,6.60
2008,03,27,16,29,6.60
2008,03,27,16,30,6.60
2008,03,27,16,31,6.60
2008,03,27,16,32,6.60
2008,03,27,16,33,6.70
2008,03,27,16,34,6.70
2008,03,27,16,35,6.80
2008,03,27,16,36,6.90
2008,03,27,16,37,7.00
2008,03,27,16,38,7.10
2008,03,27,16,39,7.20
2008,03,27,16,40,7.30
2008,03,27,16,41,7.40
2008,03,27,16,42,7.50
2008,03,27,16,43,7.60
2008,03,27,16,44,7.60
2008,03,27,16,45,7.60
2008,03,27,16,46,7.50
2008,03,27,16,47,7.40
2008,03,27,16,48,7.40
2008,03,27,16,49,7.30
2008,03,27,16,50,7.20
2008,03,27,16,51,7.20
2008,03,27,16,52,7.10
2008,03,27,16,53,7.10
2008,03,27,16,54,7.00
2008,03,27,16,55,7.00
2008,03,27,16,56,7.00
2008,03,27,16,57,6.90
2008,03,27,16,58,6.80
2008,03,27,16,59,6.80
2008,03,27,17,00,6.80
2008,03,27,17,01,6.80
2008,03,27,17,02,6.70
2008,03,27,17,03,6.70
2008,03,27,17,04,6.60
2008,03,27,17,05,6.60
2008,03,27,17,06,6.60
2008,03,27,17,07,6.60
2008,03,27,17,08,6.60
2008,03,27,17,09,6.50
2008,03,27,17,10,6.40
2008,03,27,17,11,6.40
2008,03,27,17,12,6.40
2008,03,27,17,13,6.40
2008,03,27,17,14,6.40
2008,03,27,17,15,6.40
2008,03,27,17,16,6.40
2008,03,27,17,17,6.40
2008,03,27,17,18,6.30
2008,03,27,17,19,6.30
2008,03,27,17,20,6.30
2008,03,27,17,21,6.30
2008,03,27,17,22,6.30
2008,03,27,17,23,6.30
2008,03,27,17,24,6.30
2008,03,27,17,25,6.30
2008,03,27,17,26,6.30
2008,03,27,17,27,6.30
2008,03,27,17,28,6.30
2008,03,27,17,29,6.30
2008,03,27,17,30,6.30
2008,03,27,17,31,6.30
2008,03,27,17,32,6.30
2008,03,27,17,33,6.30
2008,03,27,17,34,6.30
2008,03,27,17,35,6.30
2008,03,27,17,36,6.30
2008,03,27,17,37,6.30
2008,03,27,17,38,6.30
2008,03,27,17,39,6.30
2008,03,27,17,40,6.30
2008,03,27,17,41,6.30
2008,03,27,17,42,6.30
2008,03,27,17,43,6.30
2008,03,27,17,44,6.30
2008,03,27,17,45,6.30
2008,03,27,17,46,6.30
2008,03,27,17,47,6.30
2008,03,27,17,48,6.30
2008,03,27,17,49,6.20
2008,03,27,17,50,6.20
2008,03,27,17,51,6.20
2008,03,27,17,52,6.20
2008,03,27,17,53,6.20
2008,03,27,17,54,6.20
2008,03,27,17,55,6.20
2008,03,27,17,56,6.20
2008,03,27,17,57,6.20
2008,03,27,17,58,6.20
2008,03,27,17,59,6.20
2008,03,27,18,00,6.20
2008,03,27,18,01,6.20
2008,03,27,18,02,6.20
2008,03,27,18,03,6.10
2008,03,27,18,04,6.10
2008,03,27,18,05,6.10
2008,03,27,18,06,6.00